Weather History for Nassau, Bahamas

Change the Weather History Date:

Wednesday, July 17, 2013

  Actual Average Record
Temperature  
Mean Temperature 76 °F -  
Max Temperature 82 °F 89 °F 93 °F (2000)
Min Temperature 71 °F 75 °F 37 °F (2004)
Cooling Degree Days 12    
Growing Degree Days 26 (Base 50)    
Moisture  
Dew Point 72 °F    
Average Humidity 85    
Maximum Humidity 100    
Minimum Humidity 64    
Precipitation  
Precipitation 2.99 in 0.25 in - ()
Sea Level Pressure  
Sea Level Pressure 30.11 in    
Wind  
Wind Speed 5 mph ()    
Max Wind Speed 8 mph    
Max Gust Speed -    
Visibility 6.2 miles    
Events Rain , Thunderstorm    
Averages and records for this station are not official NWS values.
T = Trace of Precipitation, MM = Missing Value Source: Averaged Metar Reports

Daily Weather History Graph

Daily Weather History Graph

Search for Another Location

Airport:

Trip Planner

Search our weather history database for the weather conditions in past years. The results will help you decide how hot, cold, wet, or windy it might be!

Date:

Astronomy

Jul. 17, 2013 Rise Set
Actual Time 6:30 AM EDT 8:01 PM EDT
Civil Twilight 6:05 AM EDT 8:26 PM EDT
Nautical Twilight 5:35 AM EDT 8:56 PM EDT
Astronomical Twilight 5:03 AM EDT 9:28 PM EDT
Moon 2:56 PM EDT (7/17) 1:24 AM EDT (7/17)
Length of Visible Light 14h 21m
Length of Day
13h 31m
Waxing Gibbous, 67% of the Moon is Illuminated
Jul 17
Waxing Gibbous
Jul 22
Full
Jul 29
Last Quarter
Aug 6
New
Aug 14
First Quarter

Hourly Weather History & Observations

Time (EDT) Temp. Heat Index Dew Point Humidity Pressure Visibility Wind Dir Wind Speed Gust Speed Precip Events Conditions
12:00 AM 73.4 °F - 71.6 °F 94% 30.15 in 6.2 mi ESE 5.8 mph - N/A Rain Light Rain
12:40 AM 73.4 °F - 71.6 °F 94% 30.11 in 6.2 mi ENE 3.5 mph - N/A Rain , Thunderstorm Thunderstorms and Rain
2:00 AM 75 °F - 74 °F 98% 30.10 in 8 mi Calm Calm - - Rain Light Rain
2:00 AM 75.2 °F - 75.2 °F 100% 30.09 in 6.2 mi Calm Calm - N/A Rain Light Rain
3:00 AM 75.2 °F - 71.6 °F 89% 30.07 in 6.2 mi Calm Calm - N/A   Overcast
5:00 AM 76 °F - 74 °F 91% 30.09 in 6 mi East 8.1 mph - - Rain Heavy Rain Showers
5:00 AM 75.2 °F - 73.4 °F 94% 30.08 in 5.6 mi East 8.1 mph - N/A Rain Rain Showers
7:00 AM 73.4 °F - 69.8 °F 88% 30.14 in 3.7 mi SE 6.9 mph - N/A Rain Rain
8:00 AM 74 °F - 73 °F 97% 30.12 in 4 mi SE 6.9 mph - - Rain Light Rain
8:00 AM 73.4 °F - 73.4 °F 100% 30.12 in 6.2 mi SE 6.9 mph - N/A Rain Light Rain
9:00 AM 71.6 °F - 69.8 °F 94% 30.12 in - North - - N/A Rain Light Rain
10:00 AM 75.2 °F - 71.6 °F 89% 30.13 in 3.7 mi East 5.8 mph - N/A Rain Light Rain
11:00 AM 76 °F - 72 °F 86% 30.14 in 7 mi East 8.1 mph - -  
11:00 AM 77.0 °F - 73.4 °F 89% 30.14 in 6.2 mi East 8.1 mph - N/A   Mostly Cloudy
12:00 PM 77.0 °F - 71.6 °F 83% 30.12 in 6.2 mi North - - N/A   Mostly Cloudy
1:00 PM 78.8 °F - 71.6 °F 78% 30.13 in 6.2 mi East 5.8 mph - N/A   Mostly Cloudy
2:00 PM 80 °F - 73 °F 74% 30.13 in 8 mi East 5.8 mph - -   Partly Cloudy
2:00 PM 80.6 °F 85.4 °F 73.4 °F 79% 30.13 in 6.2 mi East 5.8 mph - N/A   Mostly Cloudy
3:00 PM 80.6 °F 84.6 °F 71.6 °F 74% 30.10 in 6.2 mi East 6.9 mph - N/A   Mostly Cloudy
4:00 PM 82.4 °F 88.2 °F 73.4 °F 74% 30.09 in 6.2 mi East 5.8 mph - N/A   Mostly Cloudy
5:00 PM 83 °F - 73 °F 64% 30.07 in 8 mi East 6.9 mph - -   Partly Cloudy
5:00 PM 82.4 °F 88.2 °F 73.4 °F 74% 30.07 in 6.2 mi East 6.9 mph - N/A   Mostly Cloudy
7:00 PM 78.8 °F - 71.6 °F 78% 30.06 in 6.2 mi East 4.6 mph - N/A   Mostly Cloudy
8:00 PM 79 °F - 73 °F 78% 30.08 in 8 mi East 6.9 mph - -   Partly Cloudy
8:00 PM 78.8 °F - 73.4 °F 83% 30.07 in 6.2 mi East 6.9 mph - N/A   Mostly Cloudy
9:00 PM 77.0 °F - 71.6 °F 83% 30.09 in 6.2 mi East 5.8 mph - N/A   Mostly Cloudy
10:00 PM 77.0 °F - 71.6 °F 83% 30.11 in 6.2 mi East 4.6 mph - N/A   Mostly Cloudy
11:00 PM 78.8 °F - 73.4 °F 83% 30.11 in 6.2 mi East 3.5 mph - N/A   Mostly Cloudy